EW5286 Weather Reports


Display with metric or nautical units.
time (UTC)temp
F
wind
direction
speed
MPH
gust
MPH
rain 1hr
in
rain 24hr
in
rain mn
in
humidity
%
barometer
mb
20260905004529 90 216 2.0 5.0 0.00 0.00 0.00 52 1011.0
20260905004443 91 181 3.0 5.0 0.00 0.00 0.00 52 1012.9
20260905003923 91 224 2.0 4.0 0.00 0.00 0.00 52 1012.9
20260905003434 91 224 2.0 4.0 0.00 0.00 0.00 51 1012.9
20260905003036 91 231 1.0 4.0 0.00 0.00 0.00 51 1011.0
20260905002945 92 226 1.0 4.0 0.00 0.00 0.00 51 1012.9
20260905002427 92 201 1.0 5.0 0.00 0.00 0.00 50 1012.8
20260905001939 92 231 1.0 5.0 0.00 0.00 0.00 50 1012.8
20260905001552 92 201 1.0 5.0 0.00 0.00 0.00 49 1010.9
20260905001450 92 237 1.0 5.0 0.00 0.00 0.00 49 1012.8
20260905000931 93 271 2.0 7.0 0.00 0.00 0.00 49 1012.8
20260905000502 93 229 2.0 7.0 0.00 0.00 0.00 49 1012.8
20260905000034 93 265 1.0 4.0 0.00 0.00 0.00 49 1010.9
20260904235950 93 246 1.0 6.0 0.00 0.00 0.00 49 1012.8
20260904235441 94 238 1.0 7.0 0.00 0.00 0.00 48 1012.7
20260904234924 94 221 4.0 7.0 0.00 0.00 0.00 47 1012.7
20260904234515 94 221 1.0 7.0 0.00 0.00 0.00 47 1010.7
20260904234450 94 281 2.0 7.0 0.00 0.00 0.00 47 1012.6
20260904233920 94 260 3.0 7.0 0.00 0.00 0.00 46 1012.7
20260904233423 95 176 2.0 5.0 0.00 0.00 0.00 47 1012.7
20260904233004 94 248 2.0 6.0 0.00 0.00 0.00 46 1010.6
20260904232934 95 206 3.0 7.0 0.00 0.00 0.00 46 1012.6
20260904232425 95 220 2.0 7.0 0.00 0.00 0.00 46 1012.4
20260904231928 95 209 2.0 6.0 0.00 0.00 0.00 46 1012.3
20260904231514 95 316 0.0 6.0 0.00 0.00 0.00 46 1010.4
20260904231439 95 302 0.0 6.0 0.00 0.00 0.00 46 1012.4
20260904230949 95 250 1.0 6.0 0.00 0.00 0.00 46 1012.4
20260904230439 96 275 3.0 6.0 0.00 0.00 0.00 47 1012.3
20260904230112 95 254 1.0 6.0 0.00 0.00 0.00 47 1010.5
20260904230010 96 231 1.0 6.0 0.00 0.00 0.00 47 1012.4
20260904225428 96 71 0.0 6.0 0.00 0.00 0.00 46 1012.3
20260904224947 96 10 1.0 6.0 0.00 0.00 0.00 45 1012.2
20260904224505 96 247 1.0 6.0 0.00 0.00 0.00 45 1010.4
20260904224428 96 234 1.0 5.0 0.00 0.00 0.00 45 1012.2
20260904223936 97 173 1.0 5.0 0.00 0.00 0.00 44 1012.4
20260904223508 97 280 0.0 9.0 0.00 0.00 0.00 45 1012.4
20260904223103 96 269 1.0 9.0 0.00 0.00 0.00 45 1010.5
20260904222928 97 269 3.0 9.0 0.00 0.00 0.00 45 1012.4
20260904222459 97 1 3.0 6.0 0.00 0.00 0.00 45 1012.3
20260904221928 97 202 1.0 6.0 0.00 0.00 0.00 45 1012.3
20260904221545 97 292 1.0 6.0 0.00 0.00 0.00 45 1010.4
20260904221501 97 300 3.0 6.0 0.00 0.00 0.00 45 1012.3
20260904220949 97 240 2.0 6.0 0.00 0.00 0.00 44 1012.4
20260904220431 97 309 2.0 6.0 0.00 0.00 0.00 43 1012.4
20260904220122 97 146 2.0 6.0 0.00 0.00 0.00 43 1010.5
20260904215950 97 186 2.0 6.0 0.00 0.00 0.00 44 1012.5
20260904215432 96 238 2.0 6.0 0.00 0.00 0.00 45 1012.5
20260904215003 96 253 2.0 8.0 0.00 0.00 0.00 46 1012.6
20260904214536 96 60 2.0 8.0 0.00 0.00 0.00 47 1010.7
20260904214431 97 346 3.0 8.0 0.00 0.00 0.00 47 1012.7
20260904213930 96 354 0.0 4.0 0.00 0.00 0.00 47 1012.7
20260904213422 96 41 1.0 5.0 0.00 0.00 0.00 47 1012.8
20260904213044 97 307 1.0 5.0 0.00 0.00 0.00 47 1010.8
20260904212923 97 61 2.0 5.0 0.00 0.00 0.00 47 1012.7
20260904212435 97 60 2.0 5.0 0.00 0.00 0.00 47 1012.8
20260904211927 97 47 2.0 7.0 0.00 0.00 0.00 47 1012.8
20260904211552 97 58 2.0 7.0 0.00 0.00 0.00 47 1010.9
20260904211457 97 16 3.0 7.0 0.00 0.00 0.00 47 1012.8
20260904210938 98 2 2.0 7.0 0.00 0.00 0.00 46 1012.9
20260904210449 99 280 1.0 5.0 0.00 0.00 0.00 46 1013.0
20260904210025 99 60 0.0 5.0 0.00 0.00 0.00 45 1011.0
20260904205958 99 48 1.0 5.0 0.00 0.00 0.00 45 1013.0
20260904205446 99 42 1.0 5.0 0.00 0.00 0.00 45 1013.1
20260904204936 100 34 2.0 6.0 0.00 0.00 0.00 43 1013.2
20260904204547 99 212 1.0 8.0 0.00 0.00 0.00 42 1011.3
20260904204447 99 255 2.0 8.0 0.00 0.00 0.00 42 1013.2
20260904203448 100 213 3.0 10.0 0.00 0.00 0.00 42 1013.2
20260904203103 99 257 3.0 13.0 0.00 0.00 0.00 41 1011.3
20260904202945 100 113 2.0 13.0 0.00 0.00 0.00 41 1013.3
20260904202434 101 235 4.0 8.0 0.00 0.00 0.00 41 1013.2
20260904201926 100 234 1.0 6.0 0.00 0.00 0.00 41 1013.4
20260904201554 100 238 3.0 6.0 0.00 0.00 0.00 41 1011.5
20260904201427 100 200 3.0 6.0 0.00 0.00 0.00 41 1013.4
20260904200957 101 216 2.0 5.0 0.00 0.00 0.00 40 1013.5
20260904200428 101 131 2.0 5.0 0.00 0.00 0.00 41 1013.5
20260904200049 100 217 1.0 3.0 0.00 0.00 0.00 40 1011.7
20260904195936 101 269 0.0 3.0 0.00 0.00 0.00 39 1013.7
20260904195446 101 8 1.0 5.0 0.00 0.00 0.00 41 1013.7
20260904194936 100 293 1.0 6.0 0.00 0.00 0.00 43 1013.8
20260904194608 100 191 2.0 6.0 0.00 0.00 0.00 41 1011.9
20260904194439 101 193 3.0 5.0 0.00 0.00 0.00 42 1013.9
20260904193929 101 280 1.0 4.0 0.00 0.00 0.00 42 1013.9
20260904193439 100 259 1.0 7.0 0.00 0.00 0.00 42 1013.9
20260904193049 99 258 1.0 7.0 0.00 0.00 0.00 43 1012.0
20260904192950 99 170 3.0 7.0 0.00 0.00 0.00 43 1014.0
20260904192431 99 243 2.0 6.0 0.00 0.00 0.00 43 1014.1
20260904191939 99 248 3.0 6.0 0.00 0.00 0.00 43 1014.2
20260904191554 99 168 3.0 6.0 0.00 0.00 0.00 43 1012.3
20260904191508 100 263 2.0 6.0 0.00 0.00 0.00 43 1014.2
20260904190926 99 230 2.0 8.0 0.00 0.00 0.00 44 1014.3
20260904190438 100 177 3.0 8.0 0.00 0.00 0.00 43 1014.3
20260904190040 98 255 4.0 12.0 0.00 0.00 0.00 45 1012.5
20260904185949 99 254 4.0 12.0 0.00 0.00 0.00 45 1014.4
20260904185458 98 237 5.0 12.0 0.00 0.00 0.00 43 1014.5
20260904184939 99 186 3.0 8.0 0.00 0.00 0.00 46 1014.5
20260904184533 99 286 2.0 8.0 0.00 0.00 0.00 46 1012.6
20260904184427 99 240 3.0 8.0 0.00 0.00 0.00 46 1014.6
20260904183929 99 251 2.0 5.0 0.00 0.00 0.00 47 1014.6
20260904183442 98 256 3.0 6.0 0.00 0.00 0.00 48 1014.6
20260904183038 97 246 2.0 7.0 0.00 0.00 0.00 48 1012.8
20260904182932 98 229 3.0 7.0 0.00 0.00 0.00 46 1014.8
20260904182431 98 248 5.0 7.0 0.00 0.00 0.00 46 1014.8
20260904181942 98 238 4.0 6.0 0.00 0.00 0.00 46 1014.8
20260904181535 97 234 2.0 6.0 0.00 0.00 0.00 49 1013.0
20260904181431 97 240 3.0 6.0 0.00 0.00 0.00 48 1014.9
20260904180928 96 257 3.0 7.0 0.00 0.00 0.00 50 1014.9
20260904180440 95 242 5.0 7.0 0.00 0.00 0.00 51 1015.0
20260904180036 96 269 5.0 7.0 0.00 0.00 0.00 49 1013.1
20260904175947 96 193 4.0 7.0 0.00 0.00 0.00 50 1015.0
20260904175428 94 257 1.0 6.0 0.00 0.00 0.00 52 1015.0
20260904174959 94 167 1.0 8.0 0.00 0.00 0.00 53 1015.1
20260904174540 94 243 2.0 8.0 0.00 0.00 0.00 52 1013.3
20260904174426 94 267 2.0 6.0 0.00 0.00 0.00 52 1015.2
20260904173928 95 181 3.0 6.0 0.00 0.00 0.00 52 1015.2
20260904173509 95 237 2.0 5.0 0.00 0.00 0.00 52 1015.3
20260904173011 94 219 3.0 5.0 0.00 0.00 0.00 54 1013.5
20260904172929 94 230 3.0 5.0 0.00 0.00 0.00 54 1015.4
20260904172441 95 252 3.0 4.0 0.00 0.00 0.00 53 1015.5
20260904171932 94 250 0.0 4.0 0.00 0.00 0.00 54 1015.6
20260904171603 94 285 0.0 5.0 0.00 0.00 0.00 52 1013.7
20260904171431 95 276 2.0 5.0 0.00 0.00 0.00 51 1015.7
20260904170923 96 237 3.0 6.0 0.00 0.00 0.00 51 1015.7
20260904170425 95 217 3.0 6.0 0.00 0.00 0.00 51 1015.8
20260904170106 95 248 1.0 6.0 0.00 0.00 0.00 51 1013.9
20260904165936 95 63 2.0 6.0 0.00 0.00 0.00 49 1015.8
20260904165427 95 241 2.0 6.0 0.00 0.00 0.00 52 1015.8
20260904164930 95 235 4.0 6.0 0.00 0.00 0.00 51 1015.8
20260904164510 95 285 1.0 4.0 0.00 0.00 0.00 53 1014.1
20260904164443 95 265 2.0 4.0 0.00 0.00 0.00 53 1015.9
20260904163932 94 181 1.0 5.0 0.00 0.00 0.00 53 1015.8
20260904163431 94 252 4.0 7.0 0.00 0.00 0.00 54 1015.8
20260904163017 94 250 4.0 7.0 0.00 0.00 0.00 52 1014.0
20260904162943 95 245 4.0 6.0 0.00 0.00 0.00 53 1015.9
20260904162424 94 259 3.0 6.0 0.00 0.00 0.00 52 1015.8
20260904161934 95 247 4.0 6.0 0.00 0.00 0.00 52 1015.9
20260904161521 93 266 0.0 4.0 0.00 0.00 0.00 54 1013.9
20260904161443 94 266 2.0 4.0 0.00 0.00 0.00 54 1015.8
20260904160934 94 247 1.0 3.0 0.00 0.00 0.00 55 1015.8
20260904160445 94 37 0.0 2.0 0.00 0.00 0.00 54 1015.9
20260904160007 93 280 0.0 3.0 0.00 0.00 0.00 57 1014.0
20260904155926 93 278 0.0 3.0 0.00 0.00 0.00 57 1015.8
20260904155438 92 291 1.0 3.0 0.00 0.00 0.00 59 1015.9
20260904155009 92 84 1.0 5.0 0.00 0.00 0.00 58 1015.9
20260904154557 91 223 2.0 5.0 0.00 0.00 0.00 58 1014.1
20260904154429 92 182 3.0 5.0 0.00 0.00 0.00 57 1015.9
20260904153959 92 232 1.0 3.0 0.00 0.00 0.00 58 1015.9
20260904153428 90 291 0.0 3.0 0.00 0.00 0.00 61 1016.0
20260904153045 90 200 2.0 3.0 0.00 0.00 0.00 60 1014.2
20260904152939 91 212 2.0 3.0 0.00 0.00 0.00 59 1016.0
20260904152440 91 250 1.0 2.0 0.00 0.00 0.00 61 1016.0
20260904151930 90 277 0.0 2.0 0.00 0.00 0.00 63 1016.0
20260904151555 89 270 0.0 2.0 0.00 0.00 0.00 62 1014.1
20260904150925 89 259 0.0 2.0 0.00 0.00 0.00 63 1015.9
20260904150427 89 278 1.0 2.0 0.00 0.00 0.00 63 1015.9
20260904150012 88 238 0.0 2.0 0.00 0.00 0.00 64 1014.0
20260904145937 88 236 0.0 2.0 0.00 0.00 0.00 64 1015.9
20260904145447 87 283 0.0 1.0 0.00 0.00 0.00 65 1015.8
20260904144930 87 288 0.0 0.0 0.00 0.00 0.00 66 1015.9
20260904144520 86 288 0.0 0.0 0.00 0.00 0.00 68 1014.1
20260904144442 86 288 0.0 0.0 0.00 0.00 0.00 67 1015.9
20260904143922 86 288 0.0 0.0 0.00 0.00 0.00 68 1015.8
20260904143434 86 288 0.0 0.0 0.00 0.00 0.00 68 1015.8
20260904143025 85 288 0.0 0.0 0.00 0.00 0.00 70 1014.0
20260904142922 85 288 0.0 0.0 0.00 0.00 0.00 70 1015.8
20260904142425 85 288 0.0 0.0 0.00 0.00 0.00 72 1015.8
20260904141936 84 287 0.0 0.0 0.00 0.00 0.00 73 1015.8
20260904141534 83 287 0.0 1.0 0.00 0.00 0.00 73 1013.9
20260904141446 84 287 0.0 1.0 0.00 0.00 0.00 74 1015.7
20260904140924 83 287 0.0 1.0 0.00 0.00 0.00 74 1015.7
20260904140436 83 278 0.0 0.0 0.00 0.00 0.00 75 1015.7
20260904140040 82 278 0.0 0.0 0.00 0.00 0.00 76 1013.9
20260904135946 83 278 0.0 0.0 0.00 0.00 0.00 76 1015.7
20260904135427 82 278 0.0 0.0 0.00 0.00 0.00 77 1015.7
20260904134935 82 281 0.0 0.0 0.00 0.00 0.00 77 1015.7
20260904134544 81 255 0.0 0.0 0.00 0.00 0.00 78 1013.8
20260904134445 82 255 0.0 0.0 0.00 0.00 0.00 78 1015.7
20260904133927 81 255 0.0 0.0 0.00 0.00 0.00 78 1015.6
20260904133440 81 255 0.0 0.0 0.00 0.00 0.00 79 1015.7
20260904133031 80 255 0.0 0.0 0.00 0.00 0.00 79 1013.9
20260904132948 81 255 0.0 0.0 0.00 0.00 0.00 79 1015.7
20260904132439 80 255 0.0 0.0 0.00 0.00 0.00 79 1015.6
20260904131943 80 255 0.0 0.0 0.00 0.00 0.00 78 1015.6
20260904131518 80 255 0.0 0.0 0.00 0.00 0.00 79 1013.8
20260904131431 80 255 0.0 0.0 0.00 0.00 0.00 79 1015.6
20260904130942 80 255 0.0 0.0 0.00 0.00 0.00 78 1015.5
20260904130425 80 255 0.0 0.0 0.00 0.00 0.00 79 1015.4
20260904130025 79 255 0.0 0.0 0.00 0.00 0.00 78 1013.7
20260904125935 80 255 0.0 0.0 0.00 0.00 0.00 78 1015.5
20260904125444 80 255 0.0 0.0 0.00 0.00 0.00 77 1015.4
20260904124926 80 255 0.0 0.0 0.00 0.00 0.00 77 1015.3
20260904124532 79 255 0.0 0.0 0.00 0.00 0.00 78 1013.5
20260904124438 80 255 0.0 0.0 0.00 0.00 0.00 78 1015.3
20260904123939 79 255 0.0 0.0 0.00 0.00 0.00 78 1015.2
20260904123429 79 255 0.0 0.0 0.00 0.00 0.00 77 1015.2
20260904123040 79 255 0.0 0.0 0.00 0.00 0.00 78 1013.4
20260904122942 80 255 0.0 0.0 0.00 0.00 0.00 77 1015.2
20260904122422 80 255 0.0 0.0 0.00 0.00 0.00 78 1015.0
20260904121929 80 255 0.0 0.0 0.00 0.00 0.00 78 1015.0
20260904121546 79 255 0.0 0.0 0.00 0.00 0.00 78 1013.2
20260904121430 80 255 0.0 0.0 0.00 0.00 0.00 78 1015.0
20260904120922 79 255 0.0 0.0 0.00 0.00 0.00 77 1014.9
20260904120435 79 255 0.0 0.0 0.00 0.00 0.00 78 1014.9
20260904120107 79 255 0.0 0.0 0.00 0.00 0.00 77 1013.1
20260904115935 80 255 0.0 0.0 0.00 0.00 0.00 77 1014.9
20260904115426 80 255 0.0 0.0 0.00 0.00 0.00 77 1014.8
20260904114937 79 255 0.0 0.0 0.00 0.00 0.00 77 1014.8
20260904114602 79 255 0.0 0.0 0.00 0.00 0.00 78 1013.0
20260904114441 79 255 0.0 0.0 0.00 0.00 0.00 78 1014.8
20260904113931 79 255 0.0 0.0 0.00 0.00 0.00 79 1014.8
20260904113443 79 255 0.0 0.0 0.00 0.00 0.00 77 1014.8
20260904113004 79 255 0.0 0.0 0.00 0.00 0.00 77 1013.0
20260904112924 79 255 0.0 0.0 0.00 0.00 0.00 77 1014.8
20260904112435 79 255 0.0 0.0 0.00 0.00 0.00 77 1014.7
20260904111947 80 255 0.0 0.0 0.00 0.00 0.00 77 1014.7
20260904111553 79 255 0.0 0.0 0.00 0.00 0.00 77 1012.9
20260904111426 79 255 0.0 0.0 0.00 0.00 0.00 77 1014.6
20260904110938 79 255 0.0 0.0 0.00 0.00 0.00 79 1014.6
20260904110448 79 251 0.0 0.0 0.00 0.00 0.00 80 1014.6
20260904110039 78 251 0.0 0.0 0.00 0.00 0.00 80 1012.9
20260904105936 78 251 0.0 0.0 0.00 0.00 0.00 80 1014.6
20260904105433 79 251 0.0 0.0 0.00 0.00 0.00 80 1014.6
20260904104924 79 251 0.0 0.0 0.00 0.00 0.00 80 1014.6
20260904104546 79 251 0.0 0.0 0.00 0.00 0.00 80 1012.9
20260904104456 79 251 0.0 0.0 0.00 0.00 0.00 80 1014.6
20260904103946 79 251 0.0 0.0 0.00 0.00 0.00 80 1014.6
20260904103428 79 251 0.0 0.0 0.00 0.00 0.00 80 1014.6
20260904103034 78 252 0.0 0.0 0.00 0.00 0.00 81 1012.8
20260904102941 79 251 0.0 0.0 0.00 0.00 0.00 81 1014.6
20260904102451 79 251 0.0 0.0 0.00 0.00 0.00 81 1014.5
20260904101952 79 251 0.0 0.0 0.00 0.00 0.00 81 1014.6
20260904101518 78 252 0.0 0.0 0.00 0.00 0.00 81 1012.7
20260904101441 79 251 0.0 0.0 0.00 0.00 0.00 81 1014.5
20260904100948 78 251 0.0 1.0 0.00 0.00 0.00 81 1014.5
20260904100430 78 251 0.0 1.0 0.00 0.00 0.00 81 1014.5
20260904100027 78 251 0.0 1.0 0.00 0.00 0.00 81 1012.7
20260904095941 79 251 1.0 1.0 0.00 0.00 0.00 81 1014.5
20260904095430 79 251 0.0 2.0 0.00 0.00 0.00 81 1014.5
20260904094939 79 251 1.0 2.0 0.00 0.00 0.00 80 1014.5
20260904094515 78 254 0.0 2.0 0.00 0.00 0.00 80 1012.6
20260904094429 79 254 0.0 2.0 0.00 0.00 0.00 80 1014.3
20260904093941 79 254 0.0 2.0 0.00 0.00 0.00 80 1014.3
20260904093440 79 248 1.0 2.0 0.00 0.00 0.00 80 1014.3
20260904093048 79 248 1.0 3.0 0.00 0.00 0.00 80 1012.5
20260904092950 79 249 1.0 3.0 0.00 0.00 0.00 80 1014.3
20260904092441 79 248 2.0 3.0 0.00 0.00 0.00 80 1014.2
20260904091924 79 248 2.0 3.0 0.00 0.00 0.00 80 1014.2
20260904091509 78 248 2.0 3.0 0.00 0.00 0.00 80 1012.4
20260904091434 79 248 2.0 3.0 0.00 0.00 0.00 80 1014.1
20260904090945 79 250 2.0 3.0 0.00 0.00 0.00 80 1014.2
20260904090456 79 245 2.0 3.0 0.00 0.00 0.00 80 1014.1
20260904090041 79 245 1.0 3.0 0.00 0.00 0.00 80 1012.3
20260904085945 79 248 2.0 3.0 0.00 0.00 0.00 80 1014.1
20260904085438 79 244 2.0 3.0 0.00 0.00 0.00 80 1014.0
20260904084939 79 240 2.0 3.0 0.00 0.00 0.00 79 1014.0
20260904084524 79 243 2.0 3.0 0.00 0.00 0.00 79 1012.1
20260904084429 80 242 3.0 3.0 0.00 0.00 0.00 79 1014.0
20260904083930 80 239 2.0 3.0 0.00 0.00 0.00 79 1013.9
20260904083442 80 242 3.0 4.0 0.00 0.00 0.00 79 1013.9
20260904083029 79 237 3.0 4.0 0.00 0.00 0.00 79 1012.1
20260904082930 80 245 3.0 4.0 0.00 0.00 0.00 78 1013.9
20260904082433 80 241 3.0 4.0 0.00 0.00 0.00 78 1013.9
20260904081924 80 238 3.0 4.0 0.00 0.00 0.00 78 1013.8
20260904081536 79 238 3.0 4.0 0.00 0.00 0.00 78 1012.0
20260904081451 80 238 4.0 4.0 0.00 0.00 0.00 78 1013.8
20260904080931 80 238 4.0 4.0 0.00 0.00 0.00 78 1013.9
20260904080423 80 237 3.0 4.0 0.00 0.00 0.00 78 1013.9
20260904080043 80 238 3.0 4.0 0.00 0.00 0.00 78 1012.1
20260904075924 80 238 3.0 4.0 0.00 0.00 0.00 78 1013.9
20260904075504 80 240 4.0 6.0 0.00 0.00 0.00 78 1013.8
20260904074925 80 238 4.0 6.0 0.00 0.00 0.00 78 1013.8
20260904074528 80 240 4.0 5.0 0.00 0.00 0.00 78 1011.9
20260904074435 80 240 4.0 5.0 0.00 0.00 0.00 78 1013.7
20260904073937 80 257 4.0 6.0 0.00 0.00 0.00 78 1013.8
20260904073428 80 242 4.0 6.0 0.00 0.00 0.00 78 1013.9
20260904073051 80 242 4.0 5.0 0.00 0.00 0.00 78 1012.0
20260904072940 80 237 4.0 5.0 0.00 0.00 0.00 78 1013.8
20260904072450 80 242 4.0 5.0 0.00 0.00 0.00 78 1013.8
20260904072000 80 240 4.0 5.0 0.00 0.00 0.00 78 1013.8
20260904071542 80 238 4.0 5.0 0.00 0.00 0.00 78 1012.0
20260904071447 81 239 4.0 5.0 0.00 0.00 0.00 78 1013.9
20260904070928 81 240 4.0 5.0 0.00 0.00 0.00 78 1013.8
20260904070436 81 239 4.0 4.0 0.00 0.00 0.00 77 1013.8
20260904070051 81 236 3.0 4.0 0.00 0.00 0.00 77 1012.0
20260904065948 81 244 3.0 4.0 0.00 0.00 0.00 77 1013.8
20260904065428 81 240 3.0 5.0 0.00 0.00 0.00 76 1013.9
20260904064941 81 239 4.0 5.0 0.00 0.00 0.00 76 1013.9
20260904064536 81 238 4.0 5.0 0.00 0.00 0.00 76 1012.1
20260904064431 81 239 4.0 5.0 0.00 0.00 0.00 76 1013.9
20260904064001 81 236 4.0 6.0 0.00 0.00 0.00 76 1013.8
20260904063442 82 238 4.0 6.0 0.00 0.00 0.00 76 1013.8
20260904063020 81 237 3.0 5.0 0.00 0.00 0.00 76 1012.0
20260904062931 82 239 4.0 5.0 0.00 0.00 0.00 76 1013.9
20260904062443 82 239 4.0 5.0 0.00 0.00 0.00 76 1013.9
20260904061926 82 239 4.0 6.0 0.00 0.00 0.00 76 1013.9
20260904061529 81 238 4.0 6.0 0.00 0.00 0.00 75 1012.1
20260904061438 82 241 4.0 6.0 0.00 0.00 0.00 75 1013.9
20260904060946 82 238 4.0 6.0 0.00 0.00 0.00 75 1014.0
20260904060427 82 226 4.0 7.0 0.00 0.00 0.00 75 1014.0
20260904060011 82 240 3.0 8.0 0.00 0.00 0.00 74 1012.1
20260904055934 82 239 4.0 9.0 0.00 0.00 0.00 74 1013.9
20260904055445 83 219 4.0 9.0 0.00 0.00 0.00 74 1014.0
20260904054944 83 241 5.0 8.0 0.00 0.00 0.00 74 1014.1
20260904054603 82 224 4.0 7.0 0.00 0.00 0.00 74 1012.3
20260904054502 83 242 4.0 7.0 0.00 0.00 0.00 74 1014.0
20260904053942 83 243 4.0 7.0 0.00 0.00 0.00 74 1014.1
20260904053449 83 227 4.0 7.0 0.00 0.00 0.00 74 1014.0
20260904053029 82 235 3.0 7.0 0.00 0.00 0.00 74 1012.2
20260904052448 83 224 4.0 7.0 0.00 0.00 0.00 74 1013.9
20260904051949 83 238 4.0 6.0 0.00 0.00 0.00 74 1014.0
20260904051509 82 224 3.0 6.0 0.00 0.00 0.00 74 1012.2
20260904051438 83 221 4.0 6.0 0.00 0.00 0.00 74 1014.0
20260904050947 83 242 3.0 5.0 0.00 0.00 0.00 74 1013.9
20260904050457 83 219 3.0 6.0 0.00 0.00 0.00 73 1013.9
20260904050034 83 229 3.0 6.0 0.00 0.00 0.00 73 1012.1
20260904045948 83 224 4.0 6.0 0.00 0.00 0.00 73 1013.9
20260904045423 84 242 3.0 6.0 0.00 0.00 0.00 72 1013.9
20260904044930 84 205 3.0 6.0 0.00 0.00 0.00 72 1013.9
20260904044536 83 238 3.0 6.0 0.00 0.00 0.00 72 1012.0
20260904044442 84 236 3.0 6.0 0.00 0.00 0.00 72 1013.8
20260904043922 84 242 4.0 6.0 0.00 0.00 0.00 71 1013.8
20260904043434 85 219 3.0 6.0 0.00 0.00 0.00 71 1013.8
20260904043041 84 243 2.0 6.0 0.00 0.00 0.00 70 1011.9
20260904042943 85 214 3.0 6.0 0.00 0.00 0.00 70 1013.7
20260904042424 85 234 4.0 7.0 0.00 0.00 0.00 70 1013.7
20260904042006 85 253 3.0 7.0 0.00 0.00 0.00 69 1013.7
20260904041505 85 245 3.0 9.0 0.00 0.00 0.00 69 1011.9
20260904041426 85 215 4.0 9.0 0.00 0.00 0.00 69 1013.7
20260904040936 85 240 4.0 9.0 0.00 0.00 0.00 69 1013.8
20260904040447 86 257 4.0 8.0 0.00 0.00 0.00 68 1013.7
20260904040009 85 217 3.0 7.0 0.00 0.00 0.00 68 1011.9
20260904035926 86 272 3.0 7.0 0.00 0.00 0.00 68 1013.7
20260904035437 86 226 3.0 7.0 0.00 0.00 0.00 69 1013.7
20260904035008 86 238 3.0 8.0 0.00 0.00 0.00 68 1013.7
20260904034604 85 231 3.0 8.0 0.00 0.00 0.00 68 1012.0
20260904034428 86 193 3.0 7.0 0.00 0.00 0.00 68 1013.8
20260904033956 86 181 4.0 7.0 0.00 0.00 0.00 68 1013.8
20260904033425 86 161 3.0 7.0 0.00 0.00 0.00 68 1013.9
20260904033035 85 197 3.0 7.0 0.00 0.00 0.00 68 1012.1
20260904032935 86 256 3.0 7.0 0.00 0.00 0.00 68 1013.8
20260904032444 86 245 3.0 6.0 0.00 0.00 0.00 68 1013.8
20260904031925 86 208 3.0 7.0 0.00 0.00 0.00 68 1013.9
20260904031529 85 206 3.0 7.0 0.00 0.00 0.00 68 1012.1
20260904031436 86 246 3.0 6.0 0.00 0.00 0.00 68 1014.0
20260904030935 86 159 2.0 8.0 0.00 0.00 0.00 68 1013.9
20260904030427 86 210 3.0 7.0 0.00 0.00 0.00 68 1014.0
20260904030033 86 253 2.0 7.0 0.00 0.00 0.00 67 1012.1
20260904025935 86 165 3.0 7.0 0.00 0.00 0.00 67 1013.9
20260904025444 86 189 3.0 7.0 0.00 0.00 0.00 67 1013.9
20260904024934 87 165 2.0 7.0 0.00 0.00 0.00 66 1013.9
20260904024602 86 248 1.0 7.0 0.00 0.00 0.00 66 1012.1
20260904024504 87 244 3.0 7.0 0.00 0.00 0.00 66 1013.9
20260904023922 87 266 2.0 7.0 0.00 0.00 0.00 66 1013.8
20260904023450 87 245 3.0 7.0 0.00 0.00 0.00 66 1013.8
20260904023006 86 191 2.0 7.0 0.00 0.00 0.00 66 1012.0
20260904022940 87 250 3.0 7.0 0.00 0.00 0.00 66 1013.8
20260904022429 87 173 2.0 7.0 0.00 0.00 0.00 66 1013.8
20260904021933 87 164 2.0 8.0 0.00 0.00 0.00 65 1013.7
20260904021512 87 246 2.0 8.0 0.00 0.00 0.00 65 1011.8
20260904021422 87 165 3.0 8.0 0.00 0.00 0.00 65 1013.7
20260904020934 87 243 2.0 5.0 0.00 0.00 0.00 65 1013.6
20260904020505 87 240 1.0 5.0 0.00 0.00 0.00 65 1013.5
20260904020119 87 240 1.0 5.0 0.00 0.00 0.00 65 1011.6
20260904015924 88 226 2.0 5.0 0.00 0.00 0.00 64 1013.4
20260904015436 88 165 2.0 7.0 0.00 0.00 0.00 64 1013.3
20260904014947 88 239 1.0 7.0 0.00 0.00 0.00 64 1013.3
20260904014503 87 190 1.0 6.0 0.00 0.00 0.00 64 1011.5
20260904014428 88 233 2.0 6.0 0.00 0.00 0.00 64 1013.2
20260904013939 88 155 1.0 6.0 0.00 0.00 0.00 64 1013.3
20260904013448 88 131 2.0 7.0 0.00 0.00 0.00 64 1013.3
20260904013035 87 243 2.0 7.0 0.00 0.00 0.00 63 1011.4
20260904012942 88 176 3.0 7.0 0.00 0.00 0.00 63 1013.2
20260904012422 88 204 2.0 5.0 0.00 0.00 0.00 63 1013.2
20260904011930 88 186 1.0 5.0 0.00 0.00 0.00 62 1013.1
20260904011547 88 200 0.0 3.0 0.00 0.00 0.00 62 1011.2
20260904011441 89 278 1.0 3.0 0.00 0.00 0.00 62 1013.1
20260904010922 89 179 1.0 6.0 0.00 0.00 0.00 61 1013.1
20260904010433 89 200 1.0 7.0 0.00 0.00 0.00 61 1013.0
20260904010058 89 203 2.0 7.0 0.00 0.00 0.00 61 1011.2
20260904005946 89 222 3.0 7.0 0.00 0.00 0.00 61 1013.0
20260904005425 89 259 3.0 5.0 0.00 0.00 0.00 60 1012.9
20260904004936 90 235 2.0 5.0 0.00 0.00 0.00 60 1012.9